SWR6CJ LSZH-LEPA

Flight info

Callsign SWR6CJ
Flight time 1h 35m
Altitude 37000
Route VEBIT T50 ROTOS Z669 ULMES DCT VADAR DCT GEVEA DCT INCUS DCT BALSI DCT RETNO DCT TUPOX DCT MTG DCT DIVKO DCT VATIR DCT PIVUS DCT BODEQ DCT VERSO L129 LUNIK
Aircraft A320/M-SDE3FGHIRWY/LB1

Departure

Time 2026-05-05 15:43
Airport Zürich Airport (LSZH)

Arrival

Time 2026-05-05 17:18
Airport Palma de Mallorca Airport (LEPA)
Time Latitude Longitude Altitude Speed Heading
2026-05-05 15:29 47.45418 8.55802 1397 ft 0 kts 186°
2026-05-05 15:34 47.45433 8.55804 1406 ft 4 kts 186°
2026-05-05 15:34 47.45459 8.55808 1401 ft 2 kts 186°
2026-05-05 15:35 47.45482 8.55809 1402 ft 4 kts 162°
2026-05-05 15:35 47.45502 8.55789 1407 ft 4 kts 115°
2026-05-05 15:35 47.45509 8.55751 1403 ft 4 kts 95°
2026-05-05 15:35 47.45509 8.55744 1402 ft 0 kts 96°
2026-05-05 15:38 47.45507 8.55773 1405 ft 6 kts 96°
2026-05-05 15:38 47.45505 8.55815 1404 ft 6 kts 94°
2026-05-05 15:38 47.45568 8.55845 1397 ft 8 kts
2026-05-05 15:39 47.45604 8.55851 1397 ft 7 kts
2026-05-05 15:39 47.45633 8.55901 1398 ft 7 kts 93°
2026-05-05 15:39 47.45630 8.55965 1397 ft 12 kts 94°
2026-05-05 15:39 47.45617 8.56137 1405 ft 17 kts 96°
2026-05-05 15:40 47.45606 8.56305 1402 ft 15 kts 96°
2026-05-05 15:40 47.45595 8.56455 1397 ft 14 kts 96°
2026-05-05 15:40 47.45585 8.56598 1397 ft 17 kts 96°
2026-05-05 15:40 47.45571 8.56803 1397 ft 21 kts 96°
2026-05-05 15:41 47.45560 8.56958 1399 ft 9 kts 92°
2026-05-05 15:41 47.45618 8.57023 1398 ft 18 kts
2026-05-05 15:41 47.45665 8.56991 1400 ft 5 kts 275°
2026-05-05 15:41 47.45666 8.56981 1400 ft 0 kts 276°
2026-05-05 15:42 47.45676 8.56821 1407 ft 50 kts 275°
2026-05-05 15:42 47.45737 8.55962 1399 ft 115 kts 276°
2026-05-05 15:42 47.45842 8.54537 1498 ft 153 kts 275°
2026-05-05 15:43 47.45934 8.53055 2283 ft 143 kts 275°
2026-05-05 15:43 47.46038 8.51583 2928 ft 145 kts 275°
2026-05-05 15:43 47.46147 8.50077 3493 ft 146 kts 274°
2026-05-05 15:43 47.46241 8.48606 4003 ft 146 kts 267°
2026-05-05 15:44 47.45981 8.47145 4502 ft 147 kts 239°
2026-05-05 15:44 47.45252 8.46045 4830 ft 164 kts 212°
2026-05-05 15:44 47.44206 8.45093 5048 ft 188 kts 219°
2026-05-05 15:44 47.43251 8.43634 5306 ft 209 kts 234°
2026-05-05 15:45 47.42376 8.41781 5615 ft 232 kts 234°
2026-05-05 15:45 47.41399 8.39723 6038 ft 255 kts 234°
2026-05-05 15:45 47.40357 8.37531 6741 ft 264 kts 234°
2026-05-05 15:45 47.39296 8.35298 7604 ft 267 kts 234°
2026-05-05 15:46 47.38358 8.32905 8496 ft 270 kts 241°
2026-05-05 15:46 47.37483 8.30439 9404 ft 272 kts 241°
2026-05-05 15:46 47.36600 8.27960 10186 ft 278 kts 241°
2026-05-05 15:46 47.35663 8.25334 10458 ft 301 kts 241°
2026-05-05 15:47 47.34657 8.22520 10852 ft 317 kts 241°
2026-05-05 15:47 47.33620 8.19604 11547 ft 322 kts 241°
2026-05-05 15:47 47.32580 8.16672 12320 ft 325 kts 241°
2026-05-05 15:47 47.31529 8.13706 13100 ft 328 kts 242°
2026-05-05 15:48 47.30469 8.10713 13862 ft 330 kts 242°
2026-05-05 15:48 47.29396 8.07695 14520 ft 333 kts 241°
2026-05-05 15:48 47.28329 8.04699 15154 ft 337 kts 241°
2026-05-05 15:48 47.27235 8.01630 15791 ft 340 kts 241°
2026-05-05 15:49 47.26258 7.98439 16403 ft 345 kts 246°
2026-05-05 15:49 47.25345 7.95166 17047 ft 348 kts 246°
2026-05-05 15:49 47.24421 7.91866 17681 ft 351 kts 246°
2026-05-05 15:49 47.23484 7.88529 18286 ft 354 kts 246°
2026-05-05 15:50 47.22693 7.85708 18743 ft 357 kts 246°
2026-05-05 15:50 47.21744 7.82320 19282 ft 360 kts 246°
2026-05-05 15:50 47.20783 7.78898 19810 ft 364 kts 245°
2026-05-05 15:50 47.19806 7.75430 20337 ft 368 kts 245°
2026-05-05 15:51 47.18649 7.72066 20845 ft 370 kts 236°
2026-05-05 15:51 47.17112 7.69016 21361 ft 373 kts 230°
2026-05-05 15:51 47.15487 7.66015 21879 ft 377 kts 230°
2026-05-05 15:51 47.13854 7.62998 22399 ft 380 kts 229°
2026-05-05 15:52 47.12197 7.59933 22901 ft 384 kts 229°
2026-05-05 15:52 47.10534 7.56857 23391 ft 387 kts 229°
2026-05-05 15:52 47.08851 7.53747 23815 ft 390 kts 229°
2026-05-05 15:52 47.07161 7.50632 24233 ft 392 kts 229°
2026-05-05 15:53 47.05454 7.47491 24663 ft 394 kts 230°
2026-05-05 15:53 47.03748 7.44350 25078 ft 395 kts 230°
2026-05-05 15:53 47.02031 7.41189 25484 ft 397 kts 230°
2026-05-05 15:53 47.00305 7.38024 25890 ft 399 kts 230°
2026-05-05 15:54 46.98564 7.34841 26289 ft 400 kts 230°
2026-05-05 15:54 46.96843 7.31702 26678 ft 402 kts 230°
2026-05-05 15:54 46.95087 7.28507 27075 ft 403 kts 230°
2026-05-05 15:54 46.93328 7.25307 27458 ft 405 kts 230°
2026-05-05 15:55 46.91557 7.22082 27833 ft 406 kts 230°
2026-05-05 15:55 46.89787 7.18855 28197 ft 408 kts 230°
2026-05-05 15:55 46.88014 7.15623 28554 ft 409 kts 230°
2026-05-05 15:55 46.86228 7.12371 28896 ft 411 kts 230°
2026-05-05 15:56 46.84433 7.09110 29232 ft 413 kts 230°
2026-05-05 15:56 46.82630 7.05840 29560 ft 414 kts 230°
2026-05-05 15:56 46.80814 7.02550 29875 ft 415 kts 230°
2026-05-05 15:56 46.79000 6.99267 30137 ft 417 kts 230°
2026-05-05 15:57 46.77176 6.95969 30384 ft 418 kts 230°
2026-05-05 15:57 46.75347 6.92665 30641 ft 419 kts 230°
2026-05-05 15:57 46.73511 6.89353 30877 ft 420 kts 230°
2026-05-05 15:57 46.71675 6.86049 31167 ft 419 kts 230°
2026-05-05 15:58 46.69842 6.82755 31514 ft 417 kts 230°
2026-05-05 15:58 46.68025 6.79487 31859 ft 415 kts 230°
2026-05-05 15:58 46.66211 6.76223 32198 ft 413 kts 230°
2026-05-05 15:58 46.64366 6.73035 32542 ft 411 kts 228°
2026-05-05 15:59 46.62449 6.69957 32877 ft 410 kts 227°
2026-05-05 15:59 46.60487 6.66955 33211 ft 408 kts 226°
2026-05-05 15:59 46.58512 6.63993 33557 ft 407 kts 226°
2026-05-05 15:59 46.56553 6.61051 33896 ft 405 kts 226°
2026-05-05 16:00 46.54610 6.58101 34176 ft 404 kts 226°
2026-05-05 16:00 46.52675 6.55131 34404 ft 404 kts 226°
2026-05-05 16:00 46.50774 6.52190 34621 ft 405 kts 227°
2026-05-05 16:00 46.48821 6.49161 34826 ft 406 kts 227°
2026-05-05 16:01 46.46915 6.46211 35022 ft 406 kts 226°
2026-05-05 16:01 46.44976 6.43219 35220 ft 407 kts 226°
2026-05-05 16:01 46.43038 6.40238 35403 ft 407 kts 226°
2026-05-05 16:01 46.41097 6.37254 35587 ft 408 kts 226°
2026-05-05 16:02 46.39143 6.34255 35767 ft 408 kts 226°
2026-05-05 16:02 46.37190 6.31263 35947 ft 409 kts 226°
2026-05-05 16:02 46.35233 6.28272 36120 ft 409 kts 226°
2026-05-05 16:02 46.33277 6.25284 36294 ft 410 kts 226°
2026-05-05 16:03 46.31315 6.22285 36457 ft 410 kts 226°
2026-05-05 16:03 46.29353 6.19282 36625 ft 410 kts 226°
2026-05-05 16:03 46.27273 6.16473 36806 ft 410 kts 218°
2026-05-05 16:03 46.24852 6.14261 36888 ft 413 kts 207°
2026-05-05 16:04 46.22186 6.12744 36891 ft 415 kts 198°
2026-05-05 16:04 46.16487 6.11242 36891 ft 417 kts 192°
2026-05-05 16:05 46.10755 6.09964 36896 ft 416 kts 192°
2026-05-05 16:05 46.05042 6.08696 36895 ft 415 kts 192°
2026-05-05 16:06 45.99335 6.07437 36893 ft 415 kts 192°
2026-05-05 16:06 45.93632 6.06186 36892 ft 414 kts 192°
2026-05-05 16:07 45.87939 6.04932 36898 ft 414 kts 192°
2026-05-05 16:07 45.82280 6.03674 36897 ft 414 kts 192°
2026-05-05 16:08 45.76592 6.02416 36900 ft 413 kts 192°
2026-05-05 16:08 45.70909 6.01162 36901 ft 413 kts 192°
2026-05-05 16:09 45.65235 5.99916 36899 ft 413 kts 192°
2026-05-05 16:09 45.59551 5.98673 36900 ft 413 kts 192°
2026-05-05 16:10 45.53878 5.97434 36905 ft 412 kts 193°
2026-05-05 16:10 45.48211 5.96192 36903 ft 412 kts 193°
2026-05-05 16:11 45.42597 5.94677 36906 ft 410 kts 196°
2026-05-05 16:12 45.31531 5.91017 36899 ft 407 kts 197°
2026-05-05 16:13 45.17714 5.86728 36904 ft 407 kts 196°
2026-05-05 16:13 45.12190 5.85016 36902 ft 406 kts 197°
2026-05-05 16:14 45.01164 5.81597 36897 ft 404 kts 197°
2026-05-05 16:15 44.90153 5.78214 36911 ft 404 kts 197°
2026-05-05 16:16 44.79177 5.74846 36906 ft 403 kts 197°
2026-05-05 16:17 44.70961 5.72347 36900 ft 403 kts 197°
2026-05-05 16:18 44.62747 5.69832 36907 ft 403 kts 197°
2026-05-05 16:19 44.54530 5.67330 36907 ft 403 kts 197°
2026-05-05 16:19 44.46315 5.64851 36903 ft 403 kts 196°
2026-05-05 16:20 44.35544 5.61009 36901 ft 398 kts 205°
2026-05-05 16:22 44.22649 5.53937 36902 ft 399 kts 205°
2026-05-05 16:23 44.12321 5.48309 36899 ft 399 kts 205°
2026-05-05 16:23 44.04565 5.44089 36900 ft 399 kts 205°
2026-05-05 16:24 43.99404 5.41296 36897 ft 399 kts 205°
2026-05-05 16:25 43.91642 5.37094 36902 ft 399 kts 205°
2026-05-05 16:25 43.83888 5.32897 36905 ft 399 kts 205°
2026-05-05 16:26 43.73593 5.27352 36914 ft 398 kts 205°
2026-05-05 16:27 43.68422 5.24587 36916 ft 398 kts 205°
2026-05-05 16:27 43.63262 5.21816 36918 ft 398 kts 205°
2026-05-05 16:28 43.58101 5.19050 36918 ft 398 kts 205°
2026-05-05 16:28 43.52945 5.16291 36926 ft 398 kts 205°
2026-05-05 16:29 43.47785 5.13543 36949 ft 397 kts 205°
2026-05-05 16:29 43.42627 5.10811 36952 ft 397 kts 205°
2026-05-05 16:30 43.37618 5.07726 36948 ft 392 kts 216°
2026-05-05 16:30 43.33130 5.03502 36945 ft 391 kts 217°
2026-05-05 16:31 43.28671 4.99298 36939 ft 391 kts 217°
2026-05-05 16:31 43.24185 4.95075 36928 ft 391 kts 217°
2026-05-05 16:32 43.19692 4.90857 36925 ft 391 kts 217°
2026-05-05 16:32 43.15207 4.86652 36934 ft 391 kts 217°
2026-05-05 16:33 43.11474 4.83162 36933 ft 390 kts 217°
2026-05-05 16:33 43.06990 4.78979 36926 ft 390 kts 217°
2026-05-05 16:34 43.02314 4.75187 36926 ft 392 kts 212°
2026-05-05 16:34 42.97552 4.71574 36927 ft 391 kts 213°
2026-05-05 16:35 42.92809 4.67969 36920 ft 390 kts 213°
2026-05-05 16:35 42.88061 4.64377 36920 ft 390 kts 212°
2026-05-05 16:36 42.83317 4.60800 36922 ft 390 kts 212°
2026-05-05 16:36 42.78579 4.57234 36917 ft 389 kts 212°
2026-05-05 16:37 42.73836 4.53669 36917 ft 389 kts 212°
2026-05-05 16:37 42.69102 4.50108 36913 ft 389 kts 212°
2026-05-05 16:38 42.64397 4.46570 36913 ft 389 kts 212°
2026-05-05 16:38 42.59661 4.43034 36916 ft 388 kts 212°
2026-05-05 16:39 42.54927 4.39507 36918 ft 388 kts 212°
2026-05-05 16:39 42.50195 4.35978 36917 ft 388 kts 212°
2026-05-05 16:40 42.45475 4.32463 36916 ft 387 kts 212°
2026-05-05 16:40 42.40756 4.28954 36913 ft 386 kts 212°
2026-05-05 16:41 42.36045 4.25460 36915 ft 386 kts 212°
2026-05-05 16:41 42.31342 4.21977 36907 ft 385 kts 212°
2026-05-05 16:42 42.26642 4.18502 36905 ft 385 kts 212°
2026-05-05 16:42 42.21939 4.15031 36901 ft 385 kts 212°
2026-05-05 16:43 42.17240 4.11567 36894 ft 385 kts 212°
2026-05-05 16:43 42.12567 4.08121 36890 ft 385 kts 212°
2026-05-05 16:44 42.07856 4.04670 36891 ft 386 kts 212°
2026-05-05 16:44 42.03142 4.01224 36889 ft 386 kts 212°
2026-05-05 16:45 41.98418 3.97774 36885 ft 386 kts 212°
2026-05-05 16:45 41.93680 3.94358 36883 ft 388 kts 208°
2026-05-05 16:46 41.88422 3.92445 36880 ft 397 kts 195°
2026-05-05 16:46 41.82973 3.91193 36877 ft 397 kts 196°
2026-05-05 16:47 41.77512 3.89927 36875 ft 398 kts 196°
2026-05-05 16:47 41.72060 3.88672 36877 ft 398 kts 196°
2026-05-05 16:48 41.66599 3.87414 36881 ft 398 kts 196°
2026-05-05 16:48 41.61142 3.86162 36883 ft 398 kts 196°
2026-05-05 16:49 41.55672 3.84904 36893 ft 398 kts 196°
2026-05-05 16:49 41.50214 3.83655 36879 ft 398 kts 196°
2026-05-05 16:50 41.44751 3.82399 36887 ft 398 kts 196°
2026-05-05 16:50 41.39321 3.81158 36884 ft 398 kts 196°
2026-05-05 16:51 41.33862 3.79915 36887 ft 398 kts 196°
2026-05-05 16:51 41.28403 3.78671 36890 ft 398 kts 196°
2026-05-05 16:52 41.22944 3.77429 36890 ft 398 kts 196°
2026-05-05 16:52 41.17484 3.76192 36891 ft 398 kts 196°
2026-05-05 16:53 41.12260 3.74135 36887 ft 389 kts 206°
2026-05-05 16:53 41.07213 3.71513 36886 ft 390 kts 206°
2026-05-05 16:54 41.02165 3.68910 36881 ft 390 kts 206°
2026-05-05 16:54 40.97109 3.66311 36883 ft 390 kts 206°
2026-05-05 16:55 40.92036 3.63716 36283 ft 394 kts 206°
2026-05-05 16:55 40.89485 3.62409 35582 ft 392 kts 206°
2026-05-05 16:55 40.86946 3.61109 34868 ft 392 kts 206°
2026-05-05 16:56 40.84408 3.59808 34123 ft 392 kts 206°
2026-05-05 16:56 40.81891 3.58516 33327 ft 392 kts 205°
2026-05-05 16:56 40.79334 3.57207 32813 ft 385 kts 205°
2026-05-05 16:56 40.76886 3.55962 32319 ft 379 kts 205°
2026-05-05 16:57 40.74441 3.54722 31818 ft 374 kts 205°
2026-05-05 16:57 40.72032 3.53499 31316 ft 369 kts 205°
2026-05-05 16:57 40.69645 3.52284 30843 ft 365 kts 205°
2026-05-05 16:57 40.67295 3.51085 30365 ft 361 kts 205°
2026-05-05 16:58 40.64970 3.49902 29880 ft 357 kts 205°
2026-05-05 16:58 40.62659 3.48728 29376 ft 353 kts 205°
2026-05-05 16:58 40.60387 3.47575 28921 ft 348 kts 205°
2026-05-05 16:58 40.58145 3.46435 28472 ft 343 kts 205°
2026-05-05 16:59 40.55934 3.45312 28024 ft 339 kts 205°
2026-05-05 16:59 40.53746 3.44203 27601 ft 335 kts 206°
2026-05-05 16:59 40.51578 3.43103 27171 ft 332 kts 206°
2026-05-05 16:59 40.49438 3.42020 26760 ft 328 kts 206°
2026-05-05 17:00 40.47322 3.40947 26359 ft 325 kts 206°
2026-05-05 17:00 40.45188 3.39938 25897 ft 327 kts 201°
2026-05-05 17:00 40.42941 3.39413 25435 ft 332 kts 191°
2026-05-05 17:00 40.40613 3.39438 24984 ft 336 kts 185°
2026-05-05 17:01 40.38280 3.39583 24533 ft 335 kts 185°
2026-05-05 17:01 40.35956 3.39716 24074 ft 333 kts 185°
2026-05-05 17:01 40.33676 3.39843 23628 ft 332 kts 185°
2026-05-05 17:01 40.31337 3.39974 23112 ft 332 kts 185°
2026-05-05 17:02 40.29041 3.40101 22639 ft 329 kts 185°
2026-05-05 17:02 40.26786 3.40226 22185 ft 327 kts 185°
2026-05-05 17:02 40.24487 3.40354 21708 ft 326 kts 185°
2026-05-05 17:02 40.22255 3.40482 21247 ft 325 kts 184°
2026-05-05 17:03 40.19993 3.40610 20782 ft 324 kts 184°
2026-05-05 17:03 40.17740 3.40736 20313 ft 324 kts 184°
2026-05-05 17:03 40.15484 3.40863 19830 ft 325 kts 184°
2026-05-05 17:03 40.13221 3.40989 19366 ft 326 kts 183°
2026-05-05 17:04 40.10950 3.41114 18884 ft 327 kts 183°
2026-05-05 17:04 40.08693 3.41243 18550 ft 324 kts 182°
2026-05-05 17:04 40.06429 3.41373 18129 ft 324 kts 182°
2026-05-05 17:04 40.04197 3.41505 17813 ft 319 kts 182°
2026-05-05 17:05 40.01995 3.41635 17486 ft 315 kts 182°
2026-05-05 17:05 39.99825 3.41757 17121 ft 312 kts 182°
2026-05-05 17:05 39.97660 3.41874 16758 ft 310 kts 182°
2026-05-05 17:05 39.95511 3.41993 16395 ft 308 kts 182°
2026-05-05 17:06 39.93374 3.42117 16045 ft 306 kts 182°
2026-05-05 17:06 39.91256 3.42242 15699 ft 304 kts 182°
2026-05-05 17:06 39.89147 3.42362 15358 ft 302 kts 182°
2026-05-05 17:06 39.87059 3.42478 14720 ft 299 kts 182°
2026-05-05 17:07 39.84991 3.42591 14147 ft 296 kts 182°
2026-05-05 17:07 39.82961 3.42552 13542 ft 287 kts 195°
2026-05-05 17:07 39.81166 3.41589 12895 ft 276 kts 220°
2026-05-05 17:07 39.80047 3.39629 12418 ft 271 kts 247°
2026-05-05 17:08 39.79451 3.37298 11834 ft 271 kts 250°
2026-05-05 17:08 39.78806 3.35010 11243 ft 269 kts 248°
2026-05-05 17:08 39.78121 3.32767 10669 ft 266 kts 247°
2026-05-05 17:08 39.77430 3.30546 10088 ft 264 kts 247°
2026-05-05 17:09 39.76757 3.28372 9503 ft 261 kts 247°
2026-05-05 17:09 39.76089 3.26197 8879 ft 259 kts 247°
2026-05-05 17:09 39.75428 3.24023 8241 ft 257 kts 247°
2026-05-05 17:09 39.74776 3.21854 7731 ft 258 kts 247°
2026-05-05 17:10 39.74132 3.19695 7363 ft 256 kts 248°
2026-05-05 17:10 39.73489 3.17542 6972 ft 254 kts 247°
2026-05-05 17:10 39.72849 3.15408 6567 ft 253 kts 247°
2026-05-05 17:10 39.72256 3.13429 6189 ft 252 kts 248°
2026-05-05 17:11 39.71623 3.11274 5769 ft 251 kts 250°
2026-05-05 17:11 39.70991 3.09178 5376 ft 249 kts 243°
2026-05-05 17:11 39.70167 3.07265 5235 ft 236 kts 238°
2026-05-05 17:11 39.69327 3.05486 5057 ft 227 kts 238°
2026-05-05 17:12 39.68514 3.03762 4802 ft 221 kts 238°
2026-05-05 17:12 39.67724 3.02077 4512 ft 217 kts 238°
2026-05-05 17:12 39.66948 3.00421 4225 ft 213 kts 238°
2026-05-05 17:12 39.66184 2.98791 3950 ft 210 kts 238°
2026-05-05 17:13 39.65434 2.97191 3677 ft 206 kts 238°
2026-05-05 17:13 39.64698 2.95621 3409 ft 201 kts 238°
2026-05-05 17:13 39.63975 2.94081 3148 ft 198 kts 238°
2026-05-05 17:13 39.63262 2.92564 2889 ft 196 kts 239°
2026-05-05 17:14 39.62560 2.91070 2628 ft 191 kts 238°
2026-05-05 17:14 39.61894 2.89653 2410 ft 178 kts 239°
2026-05-05 17:14 39.61280 2.88348 2171 ft 161 kts 238°
2026-05-05 17:14 39.60718 2.87153 1955 ft 149 kts 237°
2026-05-05 17:15 39.60199 2.86050 1765 ft 139 kts 237°
2026-05-05 17:15 39.59704 2.84998 1612 ft 135 kts 237°
2026-05-05 17:15 39.59220 2.83977 1399 ft 129 kts 237°
2026-05-05 17:15 39.58765 2.82962 1250 ft 132 kts 239°
2026-05-05 17:16 39.58293 2.81925 1089 ft 132 kts 233°
2026-05-05 17:16 39.57787 2.80929 852 ft 134 kts 238°
2026-05-05 17:16 39.57303 2.79863 668 ft 139 kts 239°
2026-05-05 17:16 39.56813 2.78796 523 ft 134 kts 235°
2026-05-05 17:17 39.56312 2.77787 357 ft 132 kts 237°
2026-05-05 17:17 39.55828 2.76771 192 ft 133 kts 237°
2026-05-05 17:17 39.55351 2.75750 36 ft 125 kts 238°
2026-05-05 17:17 39.54949 2.74904 30 ft 90 kts 238°
2026-05-05 17:18 39.54697 2.74374 36 ft 54 kts 238°
2026-05-05 17:18 39.54555 2.74006 36 ft 39 kts 260°
2026-05-05 17:18 39.54553 2.73783 36 ft 10 kts 272°
2026-05-05 17:18 39.54553 2.73775 36 ft 0 kts 272°
2026-05-05 17:20 39.54555 2.73738 36 ft 9 kts 282°
2026-05-05 17:21 39.54614 2.73759 36 ft 15 kts 49°
2026-05-05 17:21 39.54684 2.73913 36 ft 25 kts 60°
2026-05-05 17:21 39.54765 2.74084 36 ft 10 kts 57°
2026-05-05 17:22 39.54874 2.74089 36 ft 14 kts 329°
2026-05-05 17:22 39.55014 2.73980 36 ft 30 kts 328°
2026-05-05 17:22 39.55147 2.73873 36 ft 11 kts 328°
2026-05-05 17:22 39.55182 2.73814 34 ft 8 kts 248°
2026-05-05 17:23 39.55167 2.73750 36 ft 8 kts 317°
2026-05-05 17:23 39.55176 2.73694 36 ft 9 kts 250°
2026-05-05 17:23 39.55125 2.73587 36 ft 16 kts 237°
2026-05-05 17:23 39.55082 2.73502 36 ft 18 kts 237°
2026-05-05 17:24 39.55024 2.73431 36 ft 4 kts 153°
2026-05-05 17:24 39.55001 2.73444 36 ft 2 kts 161°
2026-05-05 17:24 39.54996 2.73446 36 ft 0 kts 162°